Home > Weather > Idar-Oberstein > Past weeks

Flag for Germany Past Weather in Idar-Oberstein, Rhineland-Palatinate, Germany — Yesterday and Last 2 Weeks

Now
84 °F

Passing clouds.


Feels Like: 85 °F
Forecast: 59 / 72 °F
Wind: 7 mph from West

Location: Hahn

Current Time: Aug 28, 2016 at 12:45:12 PM

Latest Report: Aug 28, 2016 at 11:50 AM


Visibility: N/A

Pressure: 30.01 "Hg

Humidity: 48%

Dew Point: 63 °F

Location of Idar-ObersteinLocation

Past Weather in Idar-Oberstein — Graph

°F

Idar-Oberstein Temperature Yesterday

Maximum temperature yesterday: 90 °F (at 2:50 PM)
Minimum temperature yesterday: 68 °F (at 5:20 AM)
Average temperature yesterday: 78 °F

High & Low Weather Summary for the Past Weeks

 TemperatureHumidityPressure
High90 °F (Aug 26, 3:20 PM)100% (Aug 18, 11:20 PM)30.39 "Hg (Aug 18, 11:20 PM)
Low52 °F (Aug 22, 4:50 AM)31% (Aug 25, 4:20 PM)29.83 "Hg (Aug 18, 5:50 AM)
Average67 °F67%30.10 "Hg
* Reported Aug 13 11:20 AM — Aug 28 11:20 AM, Idar-Oberstein, Weather by CustomWeather, © 2016

Note: Actual official high and low records may vary slightly from our data, if they occured in-between our weather recording intervals... More about our weather records

Advertising

Idar-Oberstein Weather History for the Previous 24 Hours

Scroll right to see more
 ConditionsComfort  
Time TempWeatherWind HumidityBarometerVisibility
11:20 AM
Sun, Aug 28
82 °FSunny.3 mph51%30.01 "Hg10 mi
10:50 AM79 °FPassing clouds.5 mph58%30.04 "HgN/A
10:20 AM75 °FSunny.7 mph65%30.04 "Hg10 mi
9:50 AM77 °FPassing clouds.5 mph61%30.01 "HgN/A
9:20 AM75 °FSunny.3 mph65%30.01 "Hg10 mi
8:50 AM75 °FSunny.2 mph57%30.01 "Hg10 mi
8:20 AM73 °FPassing clouds.5 mph65%30.01 "HgN/A
7:50 AM68 °FSunny.7 mph73%30.01 "Hg10 mi
7:20 AM66 °FClear.12 mph78%30.01 "Hg10 mi
6:50 AM73 °FPassing clouds.3 mph57%30.01 "HgN/A
6:20 AM72 °FClear.5 mph61%30.01 "Hg10 mi
5:50 AM72 °FClear.5 mph61%30.01 "Hg10 mi
5:20 AM73 °FClear.5 mph57%30.01 "Hg10 mi
4:50 AM73 °FClear.2 mph57%30.01 "Hg10 mi
4:20 AM75 °FClear.5 mph54%30.01 "Hg10 mi
3:50 AM75 °FPassing clouds.3 mph54%30.01 "HgN/A
3:20 AM75 °FPassing clouds.3 mph54%30.04 "HgN/A
2:50 AM72 °FClear.5 mph61%30.01 "Hg10 mi
2:20 AM73 °FClear.8 mph57%30.04 "Hg10 mi
1:50 AM73 °FClear.2 mph57%30.04 "Hg10 mi
1:20 AM75 °FClear.6 mph54%30.04 "Hg10 mi
12:50 AM72 °FClear.5 mph61%30.04 "Hg10 mi
12:20 AM73 °FClear.3 mph57%30.04 "Hg10 mi
11:50 PM
Sat, Aug 27
73 °FClear.2 mph57%30.04 "Hg10 mi
11:20 PM75 °FClear.9 mph54%30.04 "Hg10 mi
10:50 PM77 °FClear.8 mph51%30.04 "Hg10 mi
10:20 PM77 °FClear.9 mph51%30.04 "Hg10 mi
9:50 PM79 °FClear.8 mph48%30.07 "Hg10 mi
9:20 PM81 °FSunny.8 mph45%30.07 "Hg10 mi
8:50 PM81 °FSunny.7 mph45%30.07 "Hg10 mi
8:20 PM81 °FSunny.8 mph48%30.04 "Hg10 mi
7:50 PM82 °FPassing clouds.8 mph45%30.04 "HgN/A
7:20 PM84 °FSunny.8 mph40%30.04 "Hg10 mi
6:50 PM86 °FSunny.9 mph38%30.04 "Hg10 mi
6:20 PM88 °FPassing clouds.8 mph33%30.07 "HgN/A
5:50 PM88 °FSunny.7 mph33%30.07 "Hg10 mi
5:20 PM88 °FPassing clouds.10 mph33%30.07 "HgN/A
4:50 PM88 °FPassing clouds.9 mph33%30.07 "HgN/A
4:20 PM90 °FPassing clouds.8 mph31%30.07 "HgN/A
3:50 PM90 °FPassing clouds.7 mph31%30.09 "HgN/A
3:20 PM90 °FPassing clouds.8 mph31%30.09 "HgN/A
2:50 PM90 °FPassing clouds.8 mph33%30.09 "HgN/A
2:20 PM88 °FSunny.6 mph35%30.09 "Hg10 mi
1:50 PM88 °FSunny.5 mph38%30.12 "Hg10 mi
1:20 PM88 °FPassing clouds.7 mph40%30.12 "HgN/A
12:50 PM86 °FPassing clouds.7 mph46%30.12 "HgN/A
12:20 PM86 °FPassing clouds.8 mph49%30.12 "HgN/A
Weather by CustomWeather, © 2016

See weather overviewHow to use our weather pages